CYGFM03 (41891 NORAD) Tracking and Keplerian Element Data

This shows tracking and keplerian element data for the satellite.

Feedback or suggestion? Click here.




ElementValue
Catalog41891
NameCYGFM03
Epoch Orbit10615
Epoch Day319.40317189
Epoch Year2018
RAAN57.8003
Inclination34.9562
Eccentricity0.0014003
Argument of Perigee271.9184
Mean Anonmoly87.9923
Mean Motion15.14746462
Decay Rate4.01E-06
L11 41891U 16078H 18319.40317189 .00000401 00000-0 22823-4 0 9996
L22 41891 34.9562 57.8003 0014003 271.9184 87.9923 15.14746462106158

Live tracking and technical data element details for CYGFM03 (NORAD 41891). CYGFM03 can be tracked NOW for your location showing map with azimuth and elevation plus other details from your city location.

Track the satellite on the map from your city or location and see movement details for azimuth, elevation, latitude, longitude, range, height, and movement on the map or in text.







IsCatalogInMostPopularTable: catalog: 41891, numindb: 109
Update: records affected: 1



GetName: 41891 CYGFM03

Hit Count: updated at: Fri, 16 Nov 2018 11:19:23 GMT